User: anonymous   Login
Location: Columbia
(38.9520°N, 92.3340°W)
Time: 05:37:56
(UTC-06:00)
Language:

Cosmos 158 Rocket - Orbit

View from above orbital plane
View from above orbital plane
View from above satellite
View from above satellite

Ground track
Ground track

The orbit data is extracted from the following two-line orbital elements,

1 02802U 67045B   15057.82505923  .00000201  00000-0  66123-4 0  9991
2 02802 074.0120 292.6867 0067235 190.2710 169.7079 14.43379890507572
Epoch (UTC): 26 February 2015 19:48:05
Eccentricity: 0.0067235
inclination: 74.0120°
perigee height: 699 km
apogee height: 795 km
right ascension of ascending node: 292.6867°
argument of perigee: 190.2710°
revolutions per day: 14.43379890
mean anomaly at epoch: 169.7079°
orbit number at epoch: 50757

The dashed part of the orbit path shows where the satellite is in the earth's shadow,  

DLR